WAT9121 KSKX-KFMN

Flight info

Callsign WAT9121
Flight time 0h 26m
Altitude 22000
Route RSK
Aircraft B738/M-SDE2E3FGHIRWXY/LB1

Departure

Time 2026-05-06 16:29
Airport Taos Regional Airport (KSKX)

Arrival

Time 2026-05-06 16:55
Airport Four Corners Regional Airport (KFMN)
Time Latitude Longitude Altitude Speed Heading
2026-05-06 16:12 36.45964 -105.67196 7066 ft 0 kts 56°
2026-05-06 16:22 36.45965 -105.67194 7066 ft 2 kts 56°
2026-05-06 16:22 36.45986 -105.67160 7067 ft 6 kts 72°
2026-05-06 16:23 36.45962 -105.67141 7067 ft 8 kts 210°
2026-05-06 16:23 36.45912 -105.67218 7065 ft 16 kts 235°
2026-05-06 16:23 36.45832 -105.67369 7061 ft 26 kts 237°
2026-05-06 16:23 36.45723 -105.67567 7056 ft 28 kts 236°
2026-05-06 16:24 36.45622 -105.67763 7047 ft 26 kts 234°
2026-05-06 16:24 36.45557 -105.67862 7045 ft 10 kts 199°
2026-05-06 16:24 36.45467 -105.67900 7046 ft 19 kts 232°
2026-05-06 16:24 36.45378 -105.67917 7046 ft 15 kts 138°
2026-05-06 16:25 36.45294 -105.67824 7049 ft 16 kts 137°
2026-05-06 16:25 36.45214 -105.67731 7051 ft 16 kts 137°
2026-05-06 16:25 36.45123 -105.67629 7053 ft 19 kts 139°
2026-05-06 16:25 36.45009 -105.67498 7056 ft 26 kts 137°
2026-05-06 16:26 36.44875 -105.67344 7061 ft 25 kts 139°
2026-05-06 16:26 36.44749 -105.67203 7065 ft 24 kts 136°
2026-05-06 16:26 36.44633 -105.67068 7068 ft 22 kts 138°
2026-05-06 16:26 36.44517 -105.66934 7070 ft 25 kts 137°
2026-05-06 16:27 36.44386 -105.66786 7073 ft 25 kts 138°
2026-05-06 16:27 36.44258 -105.66643 7076 ft 28 kts 138°
2026-05-06 16:27 36.44118 -105.66481 7080 ft 26 kts 138°
2026-05-06 16:27 36.44001 -105.66345 7083 ft 20 kts 135°
2026-05-06 16:28 36.43897 -105.66361 7085 ft 18 kts 232°
2026-05-06 16:28 36.43921 -105.66452 7084 ft 9 kts 311°
2026-05-06 16:28 36.43925 -105.66456 7084 ft 1 kts 314°
2026-05-06 16:28 36.44102 -105.66660 7078 ft 75 kts 317°
2026-05-06 16:29 36.44678 -105.67313 7066 ft 147 kts 317°
2026-05-06 16:29 36.45554 -105.68311 7303 ft 187 kts 314°
2026-05-06 16:29 36.46322 -105.69681 7926 ft 204 kts 287°
2026-05-06 16:29 36.46621 -105.71499 8360 ft 226 kts 276°
2026-05-06 16:30 36.46825 -105.73475 9122 ft 232 kts 274°
2026-05-06 16:30 36.46933 -105.74839 9535 ft 242 kts 275°
2026-05-06 16:30 36.47146 -105.77832 9922 ft 280 kts 275°
2026-05-06 16:30 36.47340 -105.80313 10404 ft 302 kts 276°
2026-05-06 16:31 36.47593 -105.83015 10744 ft 325 kts 277°
2026-05-06 16:31 36.47888 -105.85826 10967 ft 328 kts 278°
2026-05-06 16:31 36.48206 -105.88623 10986 ft 327 kts 279°
2026-05-06 16:31 36.48543 -105.91429 10996 ft 329 kts 279°
2026-05-06 16:32 36.48892 -105.94241 10999 ft 329 kts 279°
2026-05-06 16:32 36.49246 -105.97051 10992 ft 329 kts 279°
2026-05-06 16:32 36.49600 -105.99855 11003 ft 329 kts 279°
2026-05-06 16:32 36.49958 -106.02668 11089 ft 326 kts 279°
2026-05-06 16:33 36.50312 -106.05440 11547 ft 326 kts 280°
2026-05-06 16:33 36.50671 -106.08244 11975 ft 330 kts 279°
2026-05-06 16:33 36.51031 -106.11059 12419 ft 329 kts 280°
2026-05-06 16:34 36.51749 -106.16682 13252 ft 329 kts 280°
2026-05-06 16:34 36.52124 -106.19494 13679 ft 331 kts 280°
2026-05-06 16:34 36.52489 -106.22326 14109 ft 333 kts 280°
2026-05-06 16:34 36.52851 -106.25188 14545 ft 337 kts 279°
2026-05-06 16:35 36.53214 -106.28077 14971 ft 340 kts 279°
2026-05-06 16:35 36.53580 -106.30991 15393 ft 342 kts 279°
2026-05-06 16:35 36.53947 -106.33928 15833 ft 344 kts 279°
2026-05-06 16:35 36.54317 -106.36871 16310 ft 345 kts 279°
2026-05-06 16:36 36.54685 -106.39820 16779 ft 347 kts 279°
2026-05-06 16:36 36.55054 -106.42789 17258 ft 349 kts 279°
2026-05-06 16:36 36.55427 -106.45777 17738 ft 350 kts 279°
2026-05-06 16:36 36.55799 -106.48743 18213 ft 353 kts 279°
2026-05-06 16:37 36.56180 -106.51771 18682 ft 356 kts 279°
2026-05-06 16:37 36.56560 -106.54824 19161 ft 359 kts 278°
2026-05-06 16:37 36.56908 -106.57906 19641 ft 359 kts 279°
2026-05-06 16:37 36.57294 -106.60973 20118 ft 361 kts 279°
2026-05-06 16:38 36.57653 -106.64075 20594 ft 365 kts 279°
2026-05-06 16:38 36.58049 -106.67214 21065 ft 369 kts 279°
2026-05-06 16:38 36.58455 -106.70387 21553 ft 373 kts 279°
2026-05-06 16:38 36.58860 -106.73588 22005 ft 377 kts 279°
2026-05-06 16:39 36.59265 -106.76814 22053 ft 378 kts 279°
2026-05-06 16:39 36.59665 -106.80043 22072 ft 378 kts 279°
2026-05-06 16:39 36.60062 -106.83284 22068 ft 378 kts 279°
2026-05-06 16:39 36.60457 -106.86514 22082 ft 377 kts 279°
2026-05-06 16:40 36.60849 -106.89740 22088 ft 377 kts 279°
2026-05-06 16:40 36.61240 -106.92967 22094 ft 377 kts 279°
2026-05-06 16:40 36.61631 -106.96197 21848 ft 379 kts 279°
2026-05-06 16:40 36.62022 -106.99436 21344 ft 377 kts 279°
2026-05-06 16:41 36.62406 -107.02637 20847 ft 372 kts 279°
2026-05-06 16:41 36.62787 -107.05811 20349 ft 369 kts 279°
2026-05-06 16:41 36.63164 -107.08958 19851 ft 366 kts 279°
2026-05-06 16:41 36.63537 -107.12074 19351 ft 363 kts 279°
2026-05-06 16:42 36.63906 -107.15166 18852 ft 360 kts 279°
2026-05-06 16:42 36.64270 -107.18237 18354 ft 357 kts 279°
2026-05-06 16:42 36.64631 -107.21282 17857 ft 354 kts 279°
2026-05-06 16:42 36.64989 -107.24306 17327 ft 353 kts 279°
2026-05-06 16:43 36.65348 -107.27331 16697 ft 354 kts 279°
2026-05-06 16:43 36.65706 -107.30363 16071 ft 354 kts 279°
2026-05-06 16:43 36.66063 -107.33398 15457 ft 354 kts 279°
2026-05-06 16:43 36.66416 -107.36408 14816 ft 347 kts 279°
2026-05-06 16:44 36.66766 -107.39341 14185 ft 337 kts 281°
2026-05-06 16:44 36.67548 -107.42036 13536 ft 330 kts 302°
2026-05-06 16:44 36.68976 -107.44235 12940 ft 324 kts 312°
2026-05-06 16:44 36.70526 -107.46219 12398 ft 316 kts 314°
2026-05-06 16:45 36.72065 -107.48130 12014 ft 309 kts 314°
2026-05-06 16:45 36.73569 -107.50012 11749 ft 305 kts 314°
2026-05-06 16:45 36.75054 -107.51867 11468 ft 301 kts 314°
2026-05-06 16:45 36.76528 -107.53689 11193 ft 296 kts 315°
2026-05-06 16:46 36.77970 -107.55466 10926 ft 294 kts 315°
2026-05-06 16:46 36.79414 -107.57253 10649 ft 291 kts 314°
2026-05-06 16:46 36.80584 -107.59279 10366 ft 288 kts 292°
2026-05-06 16:46 36.81082 -107.61679 10119 ft 286 kts 280°
2026-05-06 16:47 36.81388 -107.64119 9835 ft 283 kts 279°
2026-05-06 16:47 36.81682 -107.66553 9565 ft 284 kts 279°
2026-05-06 16:47 36.81932 -107.68970 9493 ft 276 kts 275°
2026-05-06 16:47 36.82029 -107.71356 9489 ft 274 kts 272°
2026-05-06 16:48 36.82048 -107.73740 9339 ft 278 kts 267°
2026-05-06 16:48 36.81889 -107.76169 9092 ft 282 kts 265°
2026-05-06 16:48 36.81690 -107.78619 8853 ft 285 kts 264°
2026-05-06 16:48 36.81494 -107.81066 8599 ft 281 kts 265°
2026-05-06 16:49 36.81306 -107.83477 8363 ft 276 kts 265°
2026-05-06 16:49 36.81132 -107.85806 8357 ft 263 kts 265°
2026-05-06 16:49 36.80969 -107.88025 8326 ft 252 kts 265°
2026-05-06 16:49 36.80818 -107.90150 8305 ft 240 kts 265°
2026-05-06 16:50 36.80672 -107.92174 8285 ft 229 kts 265°
2026-05-06 16:50 36.80533 -107.94105 8281 ft 218 kts 265°
2026-05-06 16:50 36.80407 -107.95917 8281 ft 202 kts 265°
2026-05-06 16:50 36.80327 -107.97042 8270 ft 191 kts 266°
2026-05-06 16:51 36.80177 -107.99167 8277 ft 180 kts 265°
2026-05-06 16:51 36.80069 -108.00688 8280 ft 172 kts 266°
2026-05-06 16:51 36.79966 -108.02161 8274 ft 168 kts 266°
2026-05-06 16:51 36.79865 -108.03604 8265 ft 167 kts 266°
2026-05-06 16:52 36.79762 -108.05054 8279 ft 168 kts 265°
2026-05-06 16:52 36.79656 -108.06528 8143 ft 170 kts 266°
2026-05-06 16:52 36.79551 -108.07994 7948 ft 170 kts 266°
2026-05-06 16:52 36.79307 -108.09418 7735 ft 168 kts 250°
2026-05-06 16:53 36.78840 -108.10739 7516 ft 167 kts 247°
2026-05-06 16:53 36.78347 -108.12047 7313 ft 166 kts 246°
2026-05-06 16:53 36.77846 -108.13366 7048 ft 172 kts 247°
2026-05-06 16:53 36.77361 -108.14658 6983 ft 162 kts 246°
2026-05-06 16:54 36.76868 -108.15929 6720 ft 164 kts 246°
2026-05-06 16:54 36.76369 -108.17217 6504 ft 164 kts 247°
2026-05-06 16:54 36.75890 -108.18485 6301 ft 158 kts 247°
2026-05-06 16:54 36.75425 -108.19710 6012 ft 157 kts 247°
2026-05-06 16:55 36.74955 -108.20937 5786 ft 156 kts 246°
2026-05-06 16:55 36.74487 -108.22149 5572 ft 153 kts 245°
2026-05-06 16:55 36.74074 -108.23239 5507 ft 113 kts 245°
2026-05-06 16:55 36.73853 -108.23812 5497 ft 32 kts 244°
2026-05-06 16:56 36.73774 -108.24028 5495 ft 26 kts 247°
2026-05-06 16:56 36.73700 -108.24106 5494 ft 10 kts 156°
2026-05-06 16:56 36.73696 -108.24043 5496 ft 0 kts 64°
2026-05-06 16:57 36.73712 -108.24000 5497 ft 14 kts 65°
2026-05-06 16:57 36.73775 -108.23835 5496 ft 24 kts 65°
2026-05-06 16:57 36.73823 -108.23709 5499 ft 23 kts 64°
2026-05-06 16:57 36.73901 -108.23510 5501 ft 26 kts 63°
2026-05-06 16:58 36.73973 -108.23316 5506 ft 24 kts 64°
2026-05-06 16:58 36.74040 -108.23135 5507 ft 23 kts 72°
2026-05-06 16:58 36.74057 -108.22953 5508 ft 20 kts 88°
2026-05-06 16:58 36.74060 -108.22780 5504 ft 21 kts 89°
2026-05-06 16:59 36.74065 -108.22589 5506 ft 22 kts 88°
2026-05-06 16:59 36.74070 -108.22418 5508 ft 14 kts 86°
2026-05-06 16:59 36.74018 -108.22359 5509 ft 12 kts 163°
2026-05-06 16:59 36.73980 -108.22275 5510 ft 12 kts 87°
2026-05-06 17:00 36.73979 -108.22220 5510 ft 0 kts 89°